Time,TemperatureF,DewpointF,PressureIn,WindDirection,WindDirectionDegrees,WindSpeedMPH,WindSpeedGustMPH,Humidity,HourlyPrecipIn,Conditions,Clouds,dailyrainin,SoftwareType,DateUTC
2013-03-05 00:01:00,48.6,48.3,30.02,East,99,0.0,0.0,99,0.00,,,0.00,Wunderground v.1.15,2013-03-05 08:01:00,
2013-03-05 00:06:00,48.6,48.3,30.02,East,99,0.0,2.0,99,0.00,,,0.00,Wunderground v.1.15,2013-03-05 08:06:00,
2013-03-05 00:11:00,48.8,48.5,30.02,East,99,0.0,1.0,99,0.00,,,0.00,Wunderground v.1.15,2013-03-05 08:11:00,
2013-03-05 00:16:00,48.8,48.5,30.02,East,99,0.0,1.0,99,0.00,,,0.00,Wunderground v.1.15,2013-03-05 08:16:00,
2013-03-05 00:21:00,48.8,48.5,30.02,East,99,0.0,2.0,99,0.00,,,0.00,Wunderground v.1.15,2013-03-05 08:21:00,
2013-03-05 00:26:00,48.8,48.3,30.02,East,99,0.0,2.0,98,0.00,,,0.00,Wunderground v.1.15,2013-03-05 08:26:00,
2013-03-05 00:31:00,48.8,48.3,30.03,East,99,0.0,0.0,98,0.00,,,0.00,Wunderground v.1.15,2013-03-05 08:31:00,
2013-03-05 00:36:00,48.8,48.0,30.03,East,99,0.0,2.0,97,0.00,,,0.00,Wunderground v.1.15,2013-03-05 08:36:00,
2013-03-05 00:41:00,48.8,48.0,30.03,East,99,0.0,0.0,97,0.00,,,0.00,Wunderground v.1.15,2013-03-05 08:41:00,
2013-03-05 00:46:00,48.9,48.1,30.03,East,99,1.0,1.0,97,0.00,,,0.00,Wunderground v.1.15,2013-03-05 08:46:00,
2013-03-05 00:51:00,48.9,47.8,30.03,East,98,0.0,0.0,96,0.00,,,0.00,Wunderground v.1.15,2013-03-05 08:51:00,
2013-03-05 00:56:00,48.9,47.8,30.03,East,94,2.0,3.0,96,0.00,,,0.00,Wunderground v.1.15,2013-03-05 08:56:00,
2013-03-05 01:01:00,48.9,47.8,30.03,East,98,2.0,4.0,96,0.00,,,0.00,Wunderground v.1.15,2013-03-05 09:01:00,
2013-03-05 01:06:00,48.9,47.8,30.03,East,89,2.0,4.0,96,0.00,,,0.00,Wunderground v.1.15,2013-03-05 09:06:00,
2013-03-05 01:11:00,48.9,47.5,30.03,East,88,1.0,4.0,95,0.00,,,0.00,Wunderground v.1.15,2013-03-05 09:11:00,
2013-03-05 01:16:00,48.9,47.5,30.02,East,88,0.0,4.0,95,0.00,,,0.00,Wunderground v.1.15,2013-03-05 09:16:00,
2013-03-05 01:21:00,49.1,47.7,30.02,East,88,0.0,2.0,95,0.00,,,0.00,Wunderground v.1.15,2013-03-05 09:21:00,
2013-03-05 01:26:00,49.1,47.7,30.02,East,88,0.0,3.0,95,0.00,,,0.00,Wunderground v.1.15,2013-03-05 09:26:00,
2013-03-05 01:32:00,49.1,47.7,30.02,East,88,0.0,1.0,95,0.00,,,0.00,Wunderground v.1.15,2013-03-05 09:32:00,
2013-03-05 01:37:00,49.1,47.7,30.02,East,88,0.0,1.0,95,0.00,,,0.00,Wunderground v.1.15,2013-03-05 09:37:00,
2013-03-05 01:42:00,49.1,48.0,30.02,East,88,0.0,0.0,96,0.00,,,0.00,Wunderground v.1.15,2013-03-05 09:42:00,
2013-03-05 01:47:00,49.1,47.7,30.02,East,88,0.0,0.0,95,0.00,,,0.00,Wunderground v.1.15,2013-03-05 09:47:00,
2013-03-05 01:52:00,49.1,47.7,30.02,East,88,0.0,0.0,95,0.00,,,0.00,Wunderground v.1.15,2013-03-05 09:52:00,
2013-03-05 01:57:00,49.1,47.7,30.02,East,88,0.0,0.0,95,0.00,,,0.00,Wunderground v.1.15,2013-03-05 09:57:00,
2013-03-05 02:02:00,48.9,47.5,30.02,East,88,0.0,0.0,95,0.00,,,0.00,Wunderground v.1.15,2013-03-05 10:02:00,
2013-03-05 02:07:00,48.9,47.5,30.02,East,88,0.0,0.0,95,0.00,,,0.00,Wunderground v.1.15,2013-03-05 10:07:00,
2013-03-05 02:12:00,48.9,47.5,30.02,East,88,0.0,0.0,95,0.00,,,0.00,Wunderground v.1.15,2013-03-05 10:12:00,
2013-03-05 02:17:00,48.9,47.8,30.01,ESE,111,0.0,1.0,96,0.00,,,0.00,Wunderground v.1.15,2013-03-05 10:17:00,
2013-03-05 02:22:00,48.8,47.4,30.01,ESE,111,0.0,2.0,95,0.00,,,0.00,Wunderground v.1.15,2013-03-05 10:22:00,
2013-03-05 02:27:00,48.8,47.4,30.01,ESE,105,1.0,3.0,95,0.00,,,0.00,Wunderground v.1.15,2013-03-05 10:27:00,
2013-03-05 02:32:00,48.8,47.4,30.01,ESE,105,0.0,1.0,95,0.00,,,0.00,Wunderground v.1.15,2013-03-05 10:32:00,
2013-03-05 02:37:00,48.9,47.5,30.01,ESE,105,0.0,1.0,95,0.00,,,0.00,Wunderground v.1.15,2013-03-05 10:37:00,
2013-03-05 02:42:00,48.9,47.2,30.01,ESE,105,0.0,0.0,94,0.00,,,0.00,Wunderground v.1.15,2013-03-05 10:42:00,
2013-03-05 02:47:00,48.9,47.2,30.01,ESE,105,0.0,0.0,94,0.00,,,0.00,Wunderground v.1.15,2013-03-05 10:47:00,
2013-03-05 02:52:00,48.9,47.5,30.01,ESE,105,0.0,0.0,95,0.00,,,0.00,Wunderground v.1.15,2013-03-05 10:52:00,
2013-03-05 02:57:00,48.9,47.5,30.01,ESE,105,0.0,0.0,95,0.00,,,0.00,Wunderground v.1.15,2013-03-05 10:57:00,
2013-03-05 03:02:00,48.9,47.5,30.00,ESE,105,0.0,0.0,95,0.00,,,0.00,Wunderground v.1.15,2013-03-05 11:02:00,
2013-03-05 03:07:00,48.9,47.5,30.00,ESE,105,0.0,0.0,95,0.00,,,0.00,Wunderground v.1.15,2013-03-05 11:07:00,
2013-03-05 03:12:00,48.9,47.8,30.00,ESE,105,0.0,0.0,96,0.00,,,0.00,Wunderground v.1.15,2013-03-05 11:12:00,
2013-03-05 03:17:00,48.9,47.8,30.00,ESE,105,0.0,0.0,96,0.00,,,0.00,Wunderground v.1.15,2013-03-05 11:17:00,
2013-03-05 03:22:00,48.9,47.8,30.00,ESE,105,0.0,0.0,96,0.00,,,0.00,Wunderground v.1.15,2013-03-05 11:22:00,
2013-03-05 03:27:00,48.9,47.8,30.00,ESE,105,0.0,0.0,96,0.00,,,0.00,Wunderground v.1.15,2013-03-05 11:27:00,
2013-03-05 03:32:00,48.9,47.8,30.00,ESE,105,0.0,0.0,96,0.00,,,0.00,Wunderground v.1.15,2013-03-05 11:32:00,
2013-03-05 03:37:00,48.9,47.8,30.00,ESE,105,0.0,0.0,96,0.00,,,0.00,Wunderground v.1.15,2013-03-05 11:37:00,
2013-03-05 03:42:00,48.9,47.8,30.00,ESE,105,0.0,0.0,96,0.00,,,0.00,Wunderground v.1.15,2013-03-05 11:42:00,
2013-03-05 03:47:00,48.8,47.7,30.01,ESE,105,0.0,0.0,96,0.00,,,0.00,Wunderground v.1.15,2013-03-05 11:47:00,
2013-03-05 03:52:00,48.8,47.7,30.01,ESE,105,0.0,0.0,96,0.00,,,0.00,Wunderground v.1.15,2013-03-05 11:52:00,
2013-03-05 03:57:00,48.8,47.7,30.01,ESE,105,0.0,0.0,96,0.00,,,0.00,Wunderground v.1.15,2013-03-05 11:57:00,
2013-03-05 04:02:00,48.8,48.0,30.02,ESE,105,0.0,0.0,97,0.00,,,0.00,Wunderground v.1.15,2013-03-05 12:02:00,
2013-03-05 04:07:00,48.8,48.0,30.02,ESE,105,0.0,0.0,97,0.00,,,0.00,Wunderground v.1.15,2013-03-05 12:07:00,
2013-03-05 04:12:00,48.8,48.0,30.02,ESE,105,0.0,0.0,97,0.00,,,0.00,Wunderground v.1.15,2013-03-05 12:12:00,
2013-03-05 04:17:00,48.8,48.0,30.02,ESE,105,0.0,0.0,97,0.00,,,0.00,Wunderground v.1.15,2013-03-05 12:17:00,
2013-03-05 04:22:00,48.8,48.0,30.02,ESE,105,0.0,0.0,97,0.00,,,0.00,Wunderground v.1.15,2013-03-05 12:22:00,
2013-03-05 04:27:00,48.6,47.8,30.02,ESE,105,0.0,0.0,97,0.00,,,0.00,Wunderground v.1.15,2013-03-05 12:27:00,
2013-03-05 04:32:00,48.6,47.8,30.02,ESE,105,0.0,0.0,97,0.00,,,0.00,Wunderground v.1.15,2013-03-05 12:32:00,
2013-03-05 04:37:00,48.6,47.8,30.02,ESE,105,0.0,0.0,97,0.00,,,0.00,Wunderground v.1.15,2013-03-05 12:37:00,
2013-03-05 04:42:00,48.6,47.8,30.02,ESE,105,0.0,0.0,97,0.00,,,0.00,Wunderground v.1.15,2013-03-05 12:42:00,
2013-03-05 04:47:00,48.6,48.1,30.01,ESE,105,0.0,0.0,98,0.00,,,0.00,Wunderground v.1.15,2013-03-05 12:47:00,
2013-03-05 04:52:00,48.6,48.1,30.01,ESE,105,0.0,0.0,98,0.00,,,0.00,Wunderground v.1.15,2013-03-05 12:52:00,
2013-03-05 04:57:00,48.5,48.0,30.01,ESE,105,0.0,0.0,98,0.00,,,0.00,Wunderground v.1.15,2013-03-05 12:57:00,
2013-03-05 05:02:00,48.5,48.0,30.01,ESE,105,0.0,0.0,98,0.00,,,0.00,Wunderground v.1.15,2013-03-05 13:02:00,
2013-03-05 05:07:00,48.5,48.0,30.01,ESE,105,0.0,0.0,98,0.00,,,0.00,Wunderground v.1.15,2013-03-05 13:07:00,
2013-03-05 05:12:00,48.3,47.8,30.01,ESE,105,0.0,0.0,98,0.00,,,0.00,Wunderground v.1.15,2013-03-05 13:12:00,
2013-03-05 05:17:00,48.3,47.8,30.02,ESE,105,0.0,0.0,98,0.00,,,0.00,Wunderground v.1.15,2013-03-05 13:17:00,
2013-03-05 05:22:00,48.3,47.8,30.02,ESE,105,0.0,0.0,98,0.00,,,0.00,Wunderground v.1.15,2013-03-05 13:22:00,
2013-03-05 05:27:00,48.3,47.8,30.02,ESE,105,0.0,0.0,98,0.00,,,0.00,Wunderground v.1.15,2013-03-05 13:27:00,
2013-03-05 05:32:00,48.3,47.8,30.02,ESE,105,0.0,0.0,98,0.00,,,0.00,Wunderground v.1.15,2013-03-05 13:32:00,
2013-03-05 05:37:00,48.2,47.7,30.02,ESE,105,0.0,0.0,98,0.00,,,0.00,Wunderground v.1.15,2013-03-05 13:37:00,
2013-03-05 05:42:00,48.2,47.7,30.02,ESE,105,0.0,0.0,98,0.00,,,0.00,Wunderground v.1.15,2013-03-05 13:42:00,
2013-03-05 05:47:00,48.2,47.7,30.02,ESE,105,0.0,0.0,98,0.00,,,0.00,Wunderground v.1.15,2013-03-05 13:47:00,
2013-03-05 05:52:00,48.2,47.7,30.02,ESE,105,0.0,0.0,98,0.00,,,0.00,Wunderground v.1.15,2013-03-05 13:52:00,
2013-03-05 05:57:00,48.2,47.7,30.02,ESE,105,0.0,0.0,98,0.00,,,0.00,Wunderground v.1.15,2013-03-05 13:57:00,
2013-03-05 06:02:00,48.2,47.7,30.02,ESE,105,0.0,0.0,98,0.00,,,0.00,Wunderground v.1.15,2013-03-05 14:02:00,
2013-03-05 06:07:00,48.2,47.7,30.02,ESE,105,0.0,0.0,98,0.00,,,0.00,Wunderground v.1.15,2013-03-05 14:07:00,
2013-03-05 06:12:00,48.0,47.5,30.02,ESE,105,0.0,0.0,98,0.00,,,0.00,Wunderground v.1.15,2013-03-05 14:12:00,
2013-03-05 06:17:00,48.0,47.5,30.02,ESE,105,0.0,0.0,98,0.00,,,0.00,Wunderground v.1.15,2013-03-05 14:17:00,
2013-03-05 06:22:00,48.0,47.5,30.02,ESE,105,0.0,0.0,98,0.00,,,0.00,Wunderground v.1.15,2013-03-05 14:22:00,
2013-03-05 06:27:00,47.9,47.1,30.02,ESE,105,0.0,0.0,97,0.00,,,0.00,Wunderground v.1.15,2013-03-05 14:27:00,
2013-03-05 06:32:00,47.7,46.9,30.02,ESE,105,0.0,0.0,97,0.00,,,0.00,Wunderground v.1.15,2013-03-05 14:32:00,
2013-03-05 06:37:00,47.7,46.9,30.02,ESE,105,0.0,0.0,97,0.00,,,0.00,Wunderground v.1.15,2013-03-05 14:37:00,
2013-03-05 06:42:00,47.7,46.9,30.02,ESE,105,0.0,0.0,97,0.00,,,0.00,Wunderground v.1.15,2013-03-05 14:42:00,
2013-03-05 06:47:00,47.7,46.9,30.02,ESE,105,0.0,0.0,97,0.00,,,0.00,Wunderground v.1.15,2013-03-05 14:47:00,
2013-03-05 06:52:00,47.7,46.9,30.02,ESE,105,0.0,0.0,97,0.00,,,0.00,Wunderground v.1.15,2013-03-05 14:52:00,
2013-03-05 06:57:00,47.9,47.1,30.02,ESE,105,0.0,2.0,97,0.00,,,0.00,Wunderground v.1.15,2013-03-05 14:57:00,
2013-03-05 07:02:00,47.9,47.1,30.03,ESE,105,0.0,0.0,97,0.00,,,0.00,Wunderground v.1.15,2013-03-05 15:02:00,
2013-03-05 07:07:00,48.0,47.2,30.03,ESE,105,0.0,0.0,97,0.00,,,0.00,Wunderground v.1.15,2013-03-05 15:07:00,
2013-03-05 07:12:00,48.2,47.4,30.03,ESE,105,0.0,0.0,97,0.00,,,0.00,Wunderground v.1.15,2013-03-05 15:12:00,
2013-03-05 07:17:00,48.3,47.5,30.03,ESE,105,0.0,2.0,97,0.00,,,0.00,Wunderground v.1.15,2013-03-05 15:17:00,
2013-03-05 07:22:00,48.3,47.5,30.03,ESE,105,0.0,0.0,97,0.00,,,0.00,Wunderground v.1.15,2013-03-05 15:22:00,
2013-03-05 07:27:00,48.5,47.4,30.03,ESE,105,0.0,0.0,96,0.00,,,0.00,Wunderground v.1.15,2013-03-05 15:27:00,
2013-03-05 07:32:00,48.6,47.5,30.03,ESE,105,0.0,0.0,96,0.00,,,0.00,Wunderground v.1.15,2013-03-05 15:32:00,
2013-03-05 07:37:00,48.8,47.7,30.03,ESE,105,0.0,0.0,96,0.00,,,0.00,Wunderground v.1.15,2013-03-05 15:37:00,
2013-03-05 07:42:00,48.8,47.7,30.03,ESE,105,0.0,0.0,96,0.00,,,0.00,Wunderground v.1.15,2013-03-05 15:42:00,
2013-03-05 07:47:00,48.9,47.8,30.03,ESE,105,0.0,0.0,96,0.00,,,0.00,Wunderground v.1.15,2013-03-05 15:47:00,
2013-03-05 07:52:00,48.9,47.5,30.03,ESE,105,0.0,1.0,95,0.00,,,0.00,Wunderground v.1.15,2013-03-05 15:52:00,
2013-03-05 07:57:00,48.9,47.5,30.03,ESE,105,0.0,1.0,95,0.00,,,0.00,Wunderground v.1.15,2013-03-05 15:57:00,
2013-03-05 08:02:00,48.9,47.5,30.03,ESE,105,0.0,1.0,95,0.00,,,0.00,Wunderground v.1.15,2013-03-05 16:02:00,
2013-03-05 08:07:00,48.9,47.2,30.03,ESE,105,0.0,1.0,94,0.00,,,0.00,Wunderground v.1.15,2013-03-05 16:07:00,
2013-03-05 08:12:00,49.1,47.4,30.03,ESE,105,0.0,0.0,94,0.00,,,0.00,Wunderground v.1.15,2013-03-05 16:12:00,
2013-03-05 08:17:00,49.2,47.3,30.03,ESE,105,0.0,0.0,93,0.00,,,0.00,Wunderground v.1.15,2013-03-05 16:17:00,
2013-03-05 08:22:00,49.4,47.2,30.03,ESE,105,0.0,0.0,92,0.00,,,0.00,Wunderground v.1.15,2013-03-05 16:22:00,
2013-03-05 08:27:00,49.5,47.3,30.03,ESE,105,0.0,1.0,92,0.00,,,0.00,Wunderground v.1.15,2013-03-05 16:27:00,
2013-03-05 08:32:00,49.6,46.8,30.02,ESE,105,0.0,0.0,90,0.00,,,0.00,Wunderground v.1.15,2013-03-05 16:32:00,
2013-03-05 08:37:00,49.6,46.5,30.02,ESE,105,0.0,3.0,89,0.00,,,0.00,Wunderground v.1.15,2013-03-05 16:37:00,
2013-03-05 08:42:00,49.6,46.5,30.02,ESE,105,0.0,1.0,89,0.00,,,0.00,Wunderground v.1.15,2013-03-05 16:42:00,
2013-03-05 08:47:00,49.8,46.4,30.02,ESE,105,0.0,2.0,88,0.00,,,0.00,Wunderground v.1.15,2013-03-05 16:47:00,
2013-03-05 08:52:00,50.1,46.7,30.02,East,97,1.0,4.0,88,0.00,,,0.00,Wunderground v.1.15,2013-03-05 16:52:00,
2013-03-05 08:57:00,50.5,46.8,30.02,East,96,0.0,4.0,87,0.00,,,0.00,Wunderground v.1.15,2013-03-05 16:57:00,
2013-03-05 09:02:00,51.3,47.3,30.03,SSW,207,0.0,2.0,86,0.00,,,0.00,Wunderground v.1.15,2013-03-05 17:02:00,
2013-03-05 09:07:00,52.2,47.8,30.03,East,97,3.0,4.0,85,0.00,,,0.00,Wunderground v.1.15,2013-03-05 17:07:00,
2013-03-05 09:12:00,52.0,46.3,30.03,SE,134,1.0,4.0,81,0.00,,,0.00,Wunderground v.1.15,2013-03-05 17:12:00,
2013-03-05 09:17:00,51.7,46.1,30.03,NW,314,3.0,4.0,81,0.00,,,0.00,Wunderground v.1.15,2013-03-05 17:17:00,
2013-03-05 09:22:00,51.6,46.0,30.03,NW,310,2.0,4.0,81,0.00,,,0.00,Wunderground v.1.15,2013-03-05 17:22:00,
2013-03-05 09:27:00,51.4,45.8,30.03,NNW,347,1.0,4.0,81,0.00,,,0.00,Wunderground v.1.15,2013-03-05 17:27:00,
2013-03-05 09:32:00,51.6,46.0,30.04,NNW,347,1.0,1.0,81,0.00,,,0.00,Wunderground v.1.15,2013-03-05 17:32:00,
2013-03-05 09:37:00,51.7,45.7,30.04,NNE,18,0.0,3.0,80,0.00,,,0.00,Wunderground v.1.15,2013-03-05 17:37:00,
2013-03-05 09:42:00,51.9,45.6,30.04,East,81,2.0,4.0,79,0.00,,,0.00,Wunderground v.1.15,2013-03-05 17:42:00,
2013-03-05 09:47:00,51.7,45.4,30.05,East,98,0.0,4.0,79,0.00,,,0.00,Wunderground v.1.15,2013-03-05 17:47:00,
2013-03-05 09:52:00,51.6,45.0,30.05,NW,316,0.0,5.0,78,0.00,,,0.00,Wunderground v.1.15,2013-03-05 17:52:00,
2013-03-05 09:57:00,52.0,45.7,30.05,NE,48,0.0,5.0,79,0.00,,,0.00,Wunderground v.1.15,2013-03-05 17:57:00,
2013-03-05 10:02:00,52.8,45.8,30.05,East,101,0.0,3.0,77,0.00,,,0.00,Wunderground v.1.15,2013-03-05 18:02:00,
2013-03-05 10:07:00,52.9,45.9,30.05,NW,318,4.0,4.0,77,0.00,,,0.00,Wunderground v.1.15,2013-03-05 18:07:00,
2013-03-05 10:12:00,52.6,44.9,30.05,NE,51,0.0,4.0,75,0.00,,,0.00,Wunderground v.1.15,2013-03-05 18:12:00,
2013-03-05 10:17:00,53.3,45.6,30.04,ESE,106,0.0,4.0,75,0.00,,,0.00,Wunderground v.1.15,2013-03-05 18:17:00,
2013-03-05 10:22:00,53.9,45.4,30.04,NW,321,0.0,5.0,73,0.00,,,0.00,Wunderground v.1.15,2013-03-05 18:22:00,
2013-03-05 10:27:00,53.9,45.1,30.04,WSW,256,3.0,6.0,72,0.00,,,0.00,Wunderground v.1.15,2013-03-05 18:27:00,
2013-03-05 10:32:00,53.8,44.6,30.04,ESE,105,4.0,6.0,71,0.00,,,0.00,Wunderground v.1.15,2013-03-05 18:32:00,
2013-03-05 10:37:00,53.5,44.7,30.04,East,94,2.0,6.0,72,0.00,,,0.00,Wunderground v.1.15,2013-03-05 18:37:00,
2013-03-05 10:42:00,53.5,44.7,30.04,East,101,1.0,4.0,72,0.00,,,0.00,Wunderground v.1.15,2013-03-05 18:42:00,
2013-03-05 10:47:00,54.1,44.5,30.04,NE,52,2.0,5.0,70,0.00,,,0.00,Wunderground v.1.15,2013-03-05 18:47:00,
2013-03-05 10:52:00,54.1,44.9,30.04,ESE,120,4.0,4.0,71,0.00,,,0.00,Wunderground v.1.15,2013-03-05 18:52:00,
2013-03-05 10:57:00,54.1,44.5,30.04,NNW,345,2.0,6.0,70,0.00,,,0.00,Wunderground v.1.15,2013-03-05 18:57:00,
2013-03-05 11:02:00,54.4,44.8,30.04,NE,47,1.0,5.0,70,0.00,,,0.00,Wunderground v.1.15,2013-03-05 19:02:00,
2013-03-05 11:07:00,54.5,44.5,30.04,South,188,3.0,7.0,69,0.00,,,0.00,Wunderground v.1.15,2013-03-05 19:07:00,
2013-03-05 11:13:00,54.5,44.5,30.04,East,97,3.0,3.0,69,0.00,,,0.00,Wunderground v.1.15,2013-03-05 19:13:00,
2013-03-05 11:18:00,54.5,44.5,30.03,ESE,122,2.0,3.0,69,0.00,,,0.00,Wunderground v.1.15,2013-03-05 19:18:00,
2013-03-05 11:23:00,54.4,44.8,30.03,East,95,0.0,4.0,70,0.00,,,0.00,Wunderground v.1.15,2013-03-05 19:23:00,
2013-03-05 11:28:00,54.8,44.8,30.03,East,90,1.0,5.0,69,0.00,,,0.00,Wunderground v.1.15,2013-03-05 19:28:00,
2013-03-05 11:33:00,55.3,44.9,30.03,East,97,0.0,2.0,68,0.00,,,0.00,Wunderground v.1.15,2013-03-05 19:33:00,
2013-03-05 11:38:00,55.6,45.6,30.03,East,79,0.0,7.0,69,0.00,,,0.00,Wunderground v.1.15,2013-03-05 19:38:00,
2013-03-05 11:43:00,55.6,45.2,30.03,ENE,70,1.0,5.0,68,0.00,,,0.00,Wunderground v.1.15,2013-03-05 19:43:00,
2013-03-05 11:48:00,55.6,45.6,30.02,SE,130,3.0,5.0,69,0.00,,,0.00,Wunderground v.1.15,2013-03-05 19:48:00,
2013-03-05 11:53:00,55.6,45.2,30.02,NNE,15,0.0,6.0,68,0.00,,,0.00,Wunderground v.1.15,2013-03-05 19:53:00,
2013-03-05 11:58:00,55.6,45.2,30.02,West,260,1.0,6.0,68,0.00,,,0.00,Wunderground v.1.15,2013-03-05 19:58:00,
2013-03-05 12:03:00,55.6,45.2,30.01,West,273,2.0,4.0,68,0.00,,,0.00,Wunderground v.1.15,2013-03-05 20:03:00,
2013-03-05 12:08:00,55.3,44.9,30.01,SE,127,4.0,5.0,68,0.00,,,0.00,Wunderground v.1.15,2013-03-05 20:08:00,
2013-03-05 12:13:00,55.0,45.0,30.01,ESE,111,0.0,6.0,69,0.00,,,0.00,Wunderground v.1.15,2013-03-05 20:13:00,
2013-03-05 12:18:00,54.5,44.5,30.01,NNE,24,1.0,7.0,69,0.00,,,0.00,Wunderground v.1.15,2013-03-05 20:18:00,
2013-03-05 12:23:00,54.8,44.8,30.01,NW,323,3.0,4.0,69,0.00,,,0.00,Wunderground v.1.15,2013-03-05 20:23:00,
2013-03-05 12:28:00,54.8,45.2,30.01,East,89,3.0,5.0,70,0.00,,,0.00,Wunderground v.1.15,2013-03-05 20:28:00,
2013-03-05 12:33:00,55.7,45.7,30.01,East,87,5.0,5.0,69,0.00,,,0.00,Wunderground v.1.15,2013-03-05 20:33:00,
2013-03-05 12:38:00,55.4,44.6,30.01,North,3,1.0,5.0,67,0.00,,,0.00,Wunderground v.1.15,2013-03-05 20:38:00,
2013-03-05 12:43:00,54.7,44.7,30.01,ESE,109,6.0,8.0,69,0.00,,,0.00,Wunderground v.1.15,2013-03-05 20:43:00,
2013-03-05 12:48:00,53.9,44.7,30.00,East,85,0.0,8.0,71,0.00,,,0.00,Wunderground v.1.15,2013-03-05 20:48:00,
2013-03-05 12:53:00,54.1,44.5,30.00,East,100,5.0,5.0,70,0.00,,,0.00,Wunderground v.1.15,2013-03-05 20:53:00,
2013-03-05 12:58:00,53.9,44.7,30.00,ENE,66,0.0,5.0,71,0.00,,,0.00,Wunderground v.1.15,2013-03-05 20:58:00,
2013-03-05 13:03:00,54.4,44.8,30.00,ENE,71,3.0,3.0,70,0.00,,,0.00,Wunderground v.1.15,2013-03-05 21:03:00,
2013-03-05 13:08:00,53.6,44.4,30.00,SE,127,1.0,7.0,71,0.00,,,0.00,Wunderground v.1.15,2013-03-05 21:08:00,
2013-03-05 13:13:00,53.9,45.1,30.00,SE,141,1.0,4.0,72,0.00,,,0.00,Wunderground v.1.15,2013-03-05 21:13:00,
2013-03-05 13:18:00,53.6,44.0,30.00,ESE,107,3.0,7.0,70,0.00,,,0.00,Wunderground v.1.15,2013-03-05 21:18:00,
2013-03-05 13:23:00,53.5,44.7,30.00,SE,125,0.0,3.0,72,0.00,,,0.00,Wunderground v.1.15,2013-03-05 21:23:00,
2013-03-05 13:28:00,53.6,44.0,30.00,ESE,102,0.0,7.0,70,0.00,,,0.00,Wunderground v.1.15,2013-03-05 21:28:00,
2013-03-05 13:33:00,53.5,44.0,29.99,SE,128,1.0,6.0,70,0.00,,,0.00,Wunderground v.1.15,2013-03-05 21:33:00,
2013-03-05 13:38:00,53.5,44.3,29.99,NE,50,0.0,6.0,71,0.00,,,0.00,Wunderground v.1.15,2013-03-05 21:38:00,
2013-03-05 13:43:00,53.9,44.3,29.99,ESE,116,3.0,5.0,70,0.00,,,0.00,Wunderground v.1.15,2013-03-05 21:43:00,
2013-03-05 13:48:00,53.8,44.2,29.99,NE,48,0.0,5.0,70,0.00,,,0.00,Wunderground v.1.15,2013-03-05 21:48:00,
2013-03-05 13:53:00,53.9,44.3,29.99,East,86,1.0,5.0,70,0.00,,,0.00,Wunderground v.1.15,2013-03-05 21:53:00,
2013-03-05 13:58:00,53.5,44.3,29.99,East,83,2.0,6.0,71,0.00,,,0.00,Wunderground v.1.15,2013-03-05 21:58:00,
2013-03-05 14:03:00,53.1,44.3,29.98,NNE,26,3.0,6.0,72,0.00,,,0.00,Wunderground v.1.15,2013-03-05 22:03:00,
2013-03-05 14:08:00,53.1,44.7,29.98,East,88,1.0,6.0,73,0.00,,,0.00,Wunderground v.1.15,2013-03-05 22:08:00,
2013-03-05 14:13:00,53.2,44.0,29.98,SSE,156,1.0,5.0,71,0.00,,,0.00,Wunderground v.1.15,2013-03-05 22:13:00,
2013-03-05 14:18:00,52.8,44.0,29.98,SE,128,2.0,5.0,72,0.00,,,0.00,Wunderground v.1.15,2013-03-05 22:18:00,
2013-03-05 14:23:00,52.6,44.2,29.98,ENE,59,0.0,4.0,73,0.00,,,0.00,Wunderground v.1.15,2013-03-05 22:23:00,
2013-03-05 14:28:00,52.3,43.9,29.98,North,359,3.0,5.0,73,0.00,,,0.00,Wunderground v.1.15,2013-03-05 22:28:00,
2013-03-05 14:33:00,52.5,44.4,29.98,ENE,72,2.0,2.0,74,0.00,,,0.00,Wunderground v.1.15,2013-03-05 22:33:00,
2013-03-05 14:38:00,52.6,44.2,29.98,North,8,3.0,5.0,73,0.00,,,0.00,Wunderground v.1.15,2013-03-05 22:38:00,
2013-03-05 14:43:00,52.5,44.1,29.98,North,351,1.0,4.0,73,0.00,,,0.00,Wunderground v.1.15,2013-03-05 22:43:00,
2013-03-05 14:48:00,52.3,43.9,29.97,SSW,199,1.0,4.0,73,0.00,,,0.00,Wunderground v.1.15,2013-03-05 22:48:00,
2013-03-05 14:53:00,52.5,44.1,29.97,NNW,337,2.0,5.0,73,0.00,,,0.00,Wunderground v.1.15,2013-03-05 22:53:00,
2013-03-05 14:58:00,52.6,44.2,29.97,NNW,337,0.0,5.0,73,0.00,,,0.00,Wunderground v.1.15,2013-03-05 22:58:00,
2013-03-05 15:03:00,53.1,44.3,29.97,ESE,109,1.0,2.0,72,0.00,,,0.00,Wunderground v.1.15,2013-03-05 23:03:00,
2013-03-05 15:08:00,52.5,43.7,29.97,NNW,333,0.0,7.0,72,0.00,,,0.00,Wunderground v.1.15,2013-03-05 23:08:00,
2013-03-05 15:13:00,52.2,44.2,29.97,SW,214,0.0,4.0,74,0.00,,,0.00,Wunderground v.1.15,2013-03-05 23:13:00,
2013-03-05 15:18:00,52.0,44.0,29.97,ENE,60,0.0,4.0,74,0.00,,,0.00,Wunderground v.1.15,2013-03-05 23:18:00,
2013-03-05 15:23:00,51.7,44.0,29.97,NNW,334,0.0,4.0,75,0.00,,,0.00,Wunderground v.1.15,2013-03-05 23:23:00,
2013-03-05 15:28:00,51.9,43.9,29.97,SE,143,2.0,4.0,74,0.00,,,0.00,Wunderground v.1.15,2013-03-05 23:28:00,
2013-03-05 15:33:00,51.7,44.0,29.97,NW,322,1.0,4.0,75,0.00,,,0.00,Wunderground v.1.15,2013-03-05 23:33:00,
2013-03-05 15:38:00,51.9,43.9,29.97,SE,125,2.0,5.0,74,0.00,,,0.00,Wunderground v.1.15,2013-03-05 23:38:00,
2013-03-05 15:43:00,51.7,44.0,29.97,NE,39,0.0,3.0,75,0.00,,,0.00,Wunderground v.1.15,2013-03-05 23:43:00,
2013-03-05 15:48:00,51.6,43.9,29.97,NNW,338,1.0,6.0,75,0.00,,,0.00,Wunderground v.1.15,2013-03-05 23:48:00,
2013-03-05 15:53:00,51.6,43.9,29.97,North,6,3.0,4.0,75,0.00,,,0.00,Wunderground v.1.15,2013-03-05 23:53:00,
2013-03-05 15:58:00,51.3,43.6,29.97,NNW,332,0.0,4.0,75,0.00,,,0.00,Wunderground v.1.15,2013-03-05 23:58:00,
2013-03-05 16:03:00,51.3,44.0,29.97,SE,136,3.0,3.0,76,0.00,,,0.00,Wunderground v.1.15,2013-03-06 00:03:00,
2013-03-05 16:08:00,51.1,43.4,29.97,North,359,0.0,4.0,75,0.00,,,0.00,Wunderground v.1.15,2013-03-06 00:08:00,
2013-03-05 16:13:00,51.0,43.7,29.97,ESE,106,0.0,2.0,76,0.00,,,0.00,Wunderground v.1.15,2013-03-06 00:13:00,
2013-03-05 16:18:00,51.0,43.7,29.97,North,1,0.0,3.0,76,0.00,,,0.00,Wunderground v.1.15,2013-03-06 00:18:00,
2013-03-05 16:23:00,51.1,43.8,29.97,North,7,1.0,2.0,76,0.00,,,0.00,Wunderground v.1.15,2013-03-06 00:23:00,
2013-03-05 16:28:00,51.1,43.8,29.97,NNW,346,0.0,3.0,76,0.00,,,0.00,Wunderground v.1.15,2013-03-06 00:28:00,
2013-03-05 16:33:00,50.8,43.5,29.97,SE,141,0.0,4.0,76,0.00,,,0.00,Wunderground v.1.15,2013-03-06 00:33:00,
2013-03-05 16:38:00,50.7,43.8,29.97,WNW,295,0.0,4.0,77,0.00,,,0.00,Wunderground v.1.15,2013-03-06 00:38:00,
2013-03-05 16:43:00,50.7,43.8,29.97,WNW,295,0.0,1.0,77,0.00,,,0.00,Wunderground v.1.15,2013-03-06 00:43:00,
2013-03-05 16:48:00,50.8,43.8,29.97,WNW,295,0.0,1.0,77,0.00,,,0.00,Wunderground v.1.15,2013-03-06 00:48:00,
2013-03-05 16:53:00,50.8,43.8,29.97,WNW,295,0.0,0.0,77,0.00,,,0.00,Wunderground v.1.15,2013-03-06 00:53:00,
2013-03-05 16:58:00,50.8,43.8,29.97,WNW,295,0.0,2.0,77,0.00,,,0.00,Wunderground v.1.15,2013-03-06 00:58:00,
2013-03-05 17:03:00,50.5,43.6,29.97,NE,38,0.0,3.0,77,0.00,,,0.00,Wunderground v.1.15,2013-03-06 01:03:00,
2013-03-05 17:08:00,50.4,43.8,29.97,NE,38,0.0,3.0,78,0.00,,,0.00,Wunderground v.1.15,2013-03-06 01:08:00,
2013-03-05 17:13:00,50.2,43.6,29.97,NE,34,0.0,1.0,78,0.00,,,0.00,Wunderground v.1.15,2013-03-06 01:13:00,
2013-03-05 17:18:00,50.2,43.6,29.97,ENE,65,0.0,2.0,78,0.00,,,0.00,Wunderground v.1.15,2013-03-06 01:18:00,
2013-03-05 17:23:00,50.2,43.6,29.97,ENE,70,0.0,2.0,78,0.00,,,0.00,Wunderground v.1.15,2013-03-06 01:23:00,
2013-03-05 17:28:00,50.1,43.8,29.97,ENE,70,0.0,2.0,79,0.00,,,0.00,Wunderground v.1.15,2013-03-06 01:28:00,
2013-03-05 17:33:00,50.2,43.9,29.97,ENE,70,0.0,0.0,79,0.00,,,0.00,Wunderground v.1.15,2013-03-06 01:33:00,
2013-03-05 17:38:00,50.2,43.9,29.97,ENE,70,0.0,0.0,79,0.00,,,0.00,Wunderground v.1.15,2013-03-06 01:38:00,
2013-03-05 17:43:00,50.2,43.9,29.97,ENE,70,1.0,2.0,79,0.00,,,0.00,Wunderground v.1.15,2013-03-06 01:43:00,
2013-03-05 17:48:00,50.2,43.9,29.97,ENE,70,0.0,2.0,79,0.00,,,0.00,Wunderground v.1.15,2013-03-06 01:48:00,
2013-03-05 17:53:00,50.2,43.9,29.97,ENE,70,0.0,2.0,79,0.00,,,0.00,Wunderground v.1.15,2013-03-06 01:53:00,
2013-03-05 17:58:00,50.1,43.8,29.97,ENE,70,0.0,2.0,79,0.00,,,0.00,Wunderground v.1.15,2013-03-06 01:58:00,
2013-03-05 18:03:00,50.2,43.9,29.98,ENE,70,0.0,0.0,79,0.00,,,0.00,Wunderground v.1.15,2013-03-06 02:03:00,
2013-03-05 18:08:00,50.1,43.5,29.98,ENE,70,0.0,0.0,78,0.00,,,0.00,Wunderground v.1.15,2013-03-06 02:08:00,
2013-03-05 18:13:00,50.1,43.5,29.98,ENE,70,0.0,0.0,78,0.00,,,0.00,Wunderground v.1.15,2013-03-06 02:13:00,
2013-03-05 18:18:00,50.1,43.5,29.98,ENE,70,0.0,2.0,78,0.00,,,0.00,Wunderground v.1.15,2013-03-06 02:18:00,
2013-03-05 18:23:00,49.9,43.6,29.98,ENE,70,0.0,0.0,79,0.00,,,0.00,Wunderground v.1.15,2013-03-06 02:23:00,
2013-03-05 18:28:00,49.9,43.6,29.98,ENE,70,1.0,2.0,79,0.00,,,0.00,Wunderground v.1.15,2013-03-06 02:28:00,
2013-03-05 18:33:00,49.9,43.6,29.98,ENE,77,0.0,0.0,79,0.00,,,0.00,Wunderground v.1.15,2013-03-06 02:33:00,
2013-03-05 18:38:00,49.9,43.6,29.98,ENE,77,0.0,2.0,79,0.00,,,0.00,Wunderground v.1.15,2013-03-06 02:38:00,
2013-03-05 18:43:00,49.8,43.5,29.98,ENE,77,0.0,0.0,79,0.00,,,0.00,Wunderground v.1.15,2013-03-06 02:43:00,
2013-03-05 18:48:00,49.9,43.6,29.98,ENE,77,0.0,1.0,79,0.00,,,0.00,Wunderground v.1.15,2013-03-06 02:48:00,
2013-03-05 18:53:00,49.9,43.3,29.98,ENE,77,0.0,0.0,78,0.00,,,0.00,Wunderground v.1.15,2013-03-06 02:53:00,
2013-03-05 18:58:00,49.8,43.5,29.98,ENE,77,0.0,0.0,79,0.00,,,0.00,Wunderground v.1.15,2013-03-06 02:58:00,
2013-03-05 19:03:00,49.8,43.5,29.98,ENE,77,0.0,1.0,79,0.00,,,0.00,Wunderground v.1.15,2013-03-06 03:03:00,
2013-03-05 19:08:00,49.8,43.5,29.98,East,79,0.0,3.0,79,0.00,,,0.00,Wunderground v.1.15,2013-03-06 03:08:00,
2013-03-05 19:13:00,49.8,43.5,29.98,East,79,0.0,1.0,79,0.00,,,0.00,Wunderground v.1.15,2013-03-06 03:13:00,
2013-03-05 19:18:00,49.8,43.5,29.98,East,79,0.0,1.0,79,0.00,,,0.00,Wunderground v.1.15,2013-03-06 03:18:00,
2013-03-05 19:23:00,49.8,43.5,29.98,East,79,0.0,1.0,79,0.00,,,0.00,Wunderground v.1.15,2013-03-06 03:23:00,
2013-03-05 19:28:00,49.8,43.9,29.98,East,79,0.0,1.0,80,0.00,,,0.00,Wunderground v.1.15,2013-03-06 03:28:00,
2013-03-05 19:33:00,49.9,44.0,29.97,East,79,0.0,0.0,80,0.00,,,0.00,Wunderground v.1.15,2013-03-06 03:33:00,
2013-03-05 19:38:00,49.8,43.9,29.97,East,79,0.0,0.0,80,0.00,,,0.00,Wunderground v.1.15,2013-03-06 03:38:00,
2013-03-05 19:43:00,49.8,43.9,29.97,East,79,0.0,0.0,80,0.00,,,0.00,Wunderground v.1.15,2013-03-06 03:43:00,
2013-03-05 19:48:00,49.8,43.5,29.98,East,79,0.0,2.0,79,0.00,,,0.00,Wunderground v.1.15,2013-03-06 03:48:00,
2013-03-05 19:53:00,49.8,43.5,29.98,East,79,0.0,1.0,79,0.00,,,0.00,Wunderground v.1.15,2013-03-06 03:53:00,
2013-03-05 19:58:00,49.8,43.5,29.98,East,81,0.0,2.0,79,0.00,,,0.00,Wunderground v.1.15,2013-03-06 03:58:00,
2013-03-05 20:03:00,49.8,43.5,29.98,ENE,68,1.0,2.0,79,0.00,,,0.00,Wunderground v.1.15,2013-03-06 04:03:00,
2013-03-05 20:08:00,49.8,43.2,29.98,ESE,120,0.0,2.0,78,0.00,,,0.00,Wunderground v.1.15,2013-03-06 04:08:00,
2013-03-05 20:13:00,49.8,43.2,29.98,East,98,1.0,2.0,78,0.00,,,0.00,Wunderground v.1.15,2013-03-06 04:13:00,
2013-03-05 20:18:00,49.8,43.2,29.98,East,98,0.0,2.0,78,0.00,,,0.00,Wunderground v.1.15,2013-03-06 04:18:00,
2013-03-05 20:23:00,49.8,43.2,29.98,ESE,110,0.0,4.0,78,0.00,,,0.00,Wunderground v.1.15,2013-03-06 04:23:00,
2013-03-05 20:28:00,49.8,43.5,29.98,ESE,110,0.0,4.0,79,0.00,,,0.00,Wunderground v.1.15,2013-03-06 04:28:00,
2013-03-05 20:33:00,49.6,43.0,29.98,ESE,110,0.0,1.0,78,0.00,,,0.00,Wunderground v.1.15,2013-03-06 04:33:00,
2013-03-05 20:38:00,49.6,43.0,29.98,East,82,0.0,2.0,78,0.00,,,0.00,Wunderground v.1.15,2013-03-06 04:38:00,
2013-03-05 20:43:00,49.6,43.0,29.98,East,82,1.0,1.0,78,0.00,,,0.00,Wunderground v.1.15,2013-03-06 04:43:00,
2013-03-05 20:48:00,49.6,43.0,30.00,East,82,0.0,2.0,78,0.00,,,0.00,Wunderground v.1.15,2013-03-06 04:48:00,
2013-03-05 20:53:00,49.6,43.4,30.00,East,82,0.0,0.0,79,0.00,,,0.00,Wunderground v.1.15,2013-03-06 04:53:00,
2013-03-05 20:58:00,49.5,43.3,30.00,East,82,0.0,1.0,79,0.00,,,0.00,Wunderground v.1.15,2013-03-06 04:58:00,
2013-03-05 21:00:00,49.5,43.3,30.00,East,82,0.0,0.0,79,0.00,,,0.00,Wunderground v.1.15,2013-03-06 05:00:00,
2013-03-05 21:05:00,49.5,43.3,30.00,East,83,0.0,3.0,79,0.00,,,0.00,Wunderground v.1.15,2013-03-06 05:05:00,
2013-03-05 21:10:00,49.5,43.6,30.00,SE,129,0.0,1.0,80,0.00,,,0.00,Wunderground v.1.15,2013-03-06 05:10:00,
2013-03-05 21:15:00,49.5,43.6,30.00,East,89,0.0,3.0,80,0.00,,,0.00,Wunderground v.1.15,2013-03-06 05:15:00,
2013-03-05 21:20:00,49.5,43.6,30.00,East,96,2.0,3.0,80,0.00,,,0.00,Wunderground v.1.15,2013-03-06 05:20:00,
2013-03-05 21:25:00,49.4,43.5,30.00,SE,146,0.0,5.0,80,0.00,,,0.00,Wunderground v.1.15,2013-03-06 05:25:00,
2013-03-05 21:30:00,49.4,43.5,29.98,East,81,3.0,3.0,80,0.00,,,0.00,Wunderground v.1.15,2013-03-06 05:30:00,
2013-03-05 21:35:00,49.2,43.3,29.98,ESE,113,0.0,3.0,80,0.00,,,0.00,Wunderground v.1.15,2013-03-06 05:35:00,
2013-03-05 21:40:00,48.9,43.0,29.98,ESE,113,0.0,0.0,80,0.00,,,0.00,Wunderground v.1.15,2013-03-06 05:40:00,
2013-03-05 21:45:00,48.8,43.2,29.99,ESE,113,0.0,0.0,81,0.00,,,0.00,Wunderground v.1.15,2013-03-06 05:45:00,
2013-03-05 21:50:00,48.6,43.0,29.99,ESE,113,0.0,0.0,81,0.00,,,0.00,Wunderground v.1.15,2013-03-06 05:50:00,
2013-03-05 21:55:00,48.6,43.4,29.99,ESE,110,1.0,3.0,82,0.00,,,0.00,Wunderground v.1.15,2013-03-06 05:55:00,
2013-03-05 22:00:00,48.8,43.5,29.98,East,94,0.0,2.0,82,0.00,,,0.00,Wunderground v.1.15,2013-03-06 06:00:00,
2013-03-05 22:05:00,48.8,43.5,29.98,East,89,4.0,4.0,82,0.00,,,0.00,Wunderground v.1.15,2013-03-06 06:05:00,
2013-03-05 22:10:00,48.9,43.6,29.98,ESE,112,0.0,1.0,82,0.00,,,0.00,Wunderground v.1.15,2013-03-06 06:10:00,
2013-03-05 22:15:00,49.1,43.8,29.98,ESE,112,0.0,2.0,82,0.00,,,0.00,Wunderground v.1.15,2013-03-06 06:15:00,
2013-03-05 22:20:00,49.1,43.8,29.98,ESE,112,0.0,0.0,82,0.00,,,0.00,Wunderground v.1.15,2013-03-06 06:20:00,
2013-03-05 22:25:00,48.9,43.6,29.98,ESE,112,0.0,0.0,82,0.00,,,0.00,Wunderground v.1.15,2013-03-06 06:25:00,
2013-03-05 22:30:00,48.9,44.0,30.00,ENE,77,0.0,1.0,83,0.00,,,0.00,Wunderground v.1.15,2013-03-06 06:30:00,
2013-03-05 22:35:00,49.1,44.2,30.00,East,99,0.0,2.0,83,0.00,,,0.00,Wunderground v.1.15,2013-03-06 06:35:00,
2013-03-05 22:40:00,49.2,44.3,30.00,East,89,0.0,0.0,83,0.00,,,0.00,Wunderground v.1.15,2013-03-06 06:40:00,
2013-03-05 22:45:00,49.4,44.1,29.99,ESE,108,0.0,5.0,82,0.00,,,0.00,Wunderground v.1.15,2013-03-06 06:45:00,
2013-03-05 22:50:00,49.5,44.2,29.99,ESE,104,4.0,5.0,82,0.00,,,0.00,Wunderground v.1.15,2013-03-06 06:50:00,
2013-03-05 22:55:00,49.6,44.0,29.99,ESE,104,0.0,5.0,81,0.00,,,0.00,Wunderground v.1.15,2013-03-06 06:55:00,
2013-03-05 23:00:00,49.6,44.0,29.98,ENE,77,1.0,2.0,81,0.00,,,0.00,Wunderground v.1.15,2013-03-06 07:00:00,
2013-03-05 23:05:00,49.8,44.5,29.98,ESE,103,0.0,3.0,82,0.00,,,0.00,Wunderground v.1.15,2013-03-06 07:05:00,
2013-03-05 23:10:00,49.8,44.5,29.98,East,79,0.0,1.0,82,0.00,,,0.00,Wunderground v.1.15,2013-03-06 07:10:00,
2013-03-05 23:15:00,49.8,44.5,29.99,East,80,0.0,2.0,82,0.00,,,0.00,Wunderground v.1.15,2013-03-06 07:15:00,
2013-03-05 23:20:00,49.9,44.6,29.99,ESE,105,0.0,2.0,82,0.00,,,0.00,Wunderground v.1.15,2013-03-06 07:20:00,
2013-03-05 23:25:00,49.9,44.6,29.99,ESE,106,1.0,5.0,82,0.00,,,0.00,Wunderground v.1.15,2013-03-06 07:25:00,
2013-03-05 23:30:00,49.9,44.6,29.97,East,96,2.0,3.0,82,0.00,,,0.00,Wunderground v.1.15,2013-03-06 07:30:00,
2013-03-05 23:35:00,49.9,44.9,29.97,ENE,76,3.0,10.0,83,0.00,,,0.00,Wunderground v.1.15,2013-03-06 07:35:00,
2013-03-05 23:40:00,49.8,44.8,29.97,East,101,4.0,4.0,83,0.00,,,0.00,Wunderground v.1.15,2013-03-06 07:40:00,
2013-03-05 23:45:00,49.8,44.8,29.97,ESE,103,4.0,7.0,83,0.00,,,0.00,Wunderground v.1.15,2013-03-06 07:45:00,
2013-03-05 23:50:00,49.8,44.5,29.97,ESE,112,2.0,4.0,82,0.00,,,0.00,Wunderground v.1.15,2013-03-06 07:50:00,
2013-03-05 23:55:00,49.8,44.5,29.97,East,84,2.0,4.0,82,0.00,,,0.00,Wunderground v.1.15,2013-03-06 07:55:00,